Simultaneous Nadir Overpasses (SNOs) Predictions

Prediction of SNOs between AQUA and METOP-C Satellite Orbit:

Table of predicted SNOs for the next 14.0 days since TLE Epoch: 8/14/2021
Index Date (AQUA) Time (AQUA) Lat,Lon (AQUA) SZA (AQUA ) Date (METOP-C) Time (METOP-C) Lat,Lon (METOP-C) SZA (METOP-C ) Distance(km) Time Diff (sec)
1 08/16/2021 17:09:37 -73.77, 96.91 119.70 08/16/2021 17:09:02 -73.77, 96.99 119.69 2.48 35
2 08/16/2021 17:59:05 73.79, -95.50 60.34 08/16/2021 17:59:42 73.81, -95.60 60.35 3.58 37
3 08/19/2021 12:43:51 -73.73, 163.44 118.84 08/19/2021 12:43:23 -73.75, 163.36 118.81 3.42 28
4 08/19/2021 13:33:20 73.81, -29.10 61.26 08/19/2021 13:34:02 73.83, -29.13 61.28 2.39 42
5 08/22/2021 08:18:06 -73.75,-130.17 117.89 08/22/2021 08:17:43 -73.78,-130.17 117.85 3.27 23
6 08/22/2021 09:07:35 73.84, 37.28 62.22 08/22/2021 09:08:22 73.86, 37.34 62.23 2.84 47
7 08/25/2021 03:02:42 73.14, 129.92 62.41 08/25/2021 03:01:36 73.05, 127.27 62.43 86.13 66
8 08/25/2021 03:52:20 -73.78, -63.78 116.90 08/25/2021 03:52:03 -73.76, -63.81 116.92 2.31 17
9 08/25/2021 04:41:48 73.82, 103.76 63.16 08/25/2021 04:42:42 73.83, 103.69 63.16 2.57 54
10 08/27/2021 22:37:01 73.39,-164.16 63.65 08/27/2021 22:35:51 73.33,-165.72 63.65 50.37 70
11 08/27/2021 23:26:34 -73.76, 2.70 115.95 08/27/2021 23:26:23 -73.79, 2.66 115.92 3.01 11
12 08/28/2021 00:16:03 73.86, 170.12 64.18 08/28/2021 00:17:02 73.85, 170.15 64.16 1.38 59



Historial Predications of SNOs between AQUA and METOP-C
